IRIDIUM 33 DEB, 34497

Orbit data source: Space-Track

IRIDIUM 33 DEB, 34497 is space debris in LEO originally from a launch on Sun, 14 Sep 1997 UTC launched from the Tyuratam Missile And Space Complex (TTMTR). The debris from Iridium 33, an American commercial communications satellite, has been tracked extensively since its accidental collision with the defunct Russian satellite Cosmos 2251 in 2009. This event, occurring at high speed in low Earth orbit (LEO), generated thousands of pieces of space debris, significantly increasing the risk of further collisions. The Iridium 33 debris cloud has impacted space traffic management and orbital debris mitigation strategies, making it a subject of ongoing study in space situational awareness.

Loading next visibility...
Identifier
34497, 1997-051GN
Orbit
LEO
Country
Flag of USUS
Related business
Manufacturer
Unknown
Mission
Spacecraft
Bus & Motor
Unknown
Mass
Unknown
Launch date (UTC)
1997-09-14 (28 years ago)
Launch vehicle
Unknown
Launch site
Tyuratam Missile And Space Complex (TTMTR)
Object type
Payload
Rocket body
Debris
Shape & HBR
Unknown shape, 0.1 m
Radar Cross Section
Small (<0.1 m²)

Expand to show TLE details & history
Last TLE update: 3 days ago

TLE from 3 days ago
0 IRIDIUM 33 DEB
1 34497U 97051GN  26035.43096516  .00001642  00000-0  63676-3 0  9993
2 34497  86.2768  29.4482 0080308 163.7045 348.8403 14.27658316876497
Epoch: 2026-02-04T10:20Z
TLE epoch observation values (Epoch: 2026-02-04T10:20:35.389Z)
Latitude
27.61219°
Longitude
-82.23703°
Altitude
746.525 km
Speed
7.513 km/s
True Right ascension
13h 50m 01s
True Declination
27° 28' 16"
Sunlit
Object was in daylight at epoch
Visualization orbit readout
Latitude
Unknown
Longitude
Unknown
Altitude
Unknown
Speed
Unknown
Apparent Right ascension
Unknown
Apparent Declination
Unknown
Sunlit
N/A
Visualization observer readout
Local Sidereal Time
12:55:49
Azimuth
Unknown
Elevation
Unknown
Doppler factor
Unknown
Orbital elements
Apogee altitude
854.163 km
Perigee altitude
738.926 km
Semi-major axis
7,174.682 km
Eccentricity
0.00803
Inclination
86.2768°
RAAN
29.4482°
Arg. of periapsis
163.7045°
True anomaly
348.66042°
Mean anomaly
348.8403°
Eccentric anomaly
348.75054°
Mean motion
3.57141 °/min
Orbital period
100.8 mins
BSTAR
0.00063676
Loading maneuver chart data...
Computing Atmospheric mass density...

Documentation

Showing up to 5 results
|